Retour au catalogue

SL-14 R/B

ActifLEO
NORAD 17536·ROCKET BODY·🇷🇺 Russia

Lancé Feb 20, 1987 depuis Plesetsk Cosmodrome

Loading…

Prochains Passages (prochaines 24 heures)

TLE

FraisSource: Space-Track

Époque: Sep 14, 2026, 07:46 UTC

1 17536U 87020B   26257.32400249 -.00000022  00000-0 -37345-4 0  9997
2 17536  73.6088 280.8440 0025879  95.2088 276.1949 12.41638758757287

Suivez SL-14 R/B en temps réel avec AllMySat

Download on the App Store